Location: Creston
(40.9870°N, 81.8938°W)
Time: 18:47:31
(UTC+00:00)

GPS 2-04 Rocket1 - Pass Details

Date: 29 October 2020
Orbit: 418 x 545 km, 35.6° (Epoch: 23 November)

Event Time Altitude Azimuth Distance (km) Brightness Sun altitude
Rises 23:31:50 0° 236° (WSW) 2,603 7.5 -12.9°
Reaches altitude 10° 23:34:14 10° 225° (SW) 1,740 6.2 -13.3°
Maximum altitude 23:37:42 28° 165° (SSE) 1,003 4.0 -14.0°
Enters shadow 23:39:45 19° 120° (ESE) 1,318 4.3 -14.4°
